Location: Prairie State College
(41.5244°N, 87.6382°W)
Time: 06:16:27
(UTC-05:00)

Cosmos 1140 Rocket - Visible Passes

Search period start: 01 September 2014 00:00
Search period end: 11 September 2014 00:00
Orbit: 747 x 768 km, 74.1° (Epoch: 31 August)

Date Brightness Start Highest point End Pass type
(mag) Time Alt. Az. Time Alt. Az. Time Alt. Az.
01 Sep 6.0 00:32:58 16° NNW 00:32:58 16° NNW 00:34:43 10° N visible
01 Sep 5.7 23:53:13 21° NNW 23:53:13 21° NNW 23:55:11 10° N visible
02 Sep 5.5 23:13:26 22° N 23:13:26 22° N 23:15:17 10° NNE visible
03 Sep 5.4 22:33:35 20° NNE 22:33:35 20° NNE 22:35:08 10° NNE visible
04 Sep 6.1 00:13:35 14° NW 00:13:35 14° NW 00:15:23 10° NNW visible
04 Sep 5.5 21:53:40 16° NE 21:53:40 16° NE 21:54:42 10° NE visible
04 Sep 5.7 23:33:40 21° NNW 23:33:40 21° NNW 23:36:09 10° N visible
05 Sep 5.7 21:13:40 11° NE 21:13:40 11° NE 21:13:50 10° NE visible
05 Sep 5.2 22:53:39 29° NNW 22:53:39 29° NNW 22:56:25 10° N visible
06 Sep 4.7 22:13:31 34° NNE 22:13:31 34° NNE 22:16:24 10° NNE visible
06 Sep 6.3 23:53:30 11° NW 23:53:55 11° NW 23:55:35 10° NNW visible
07 Sep 4.5 21:33:11 33° NE 21:33:11 33° NE 21:36:07 10° NNE visible
07 Sep 5.7 23:13:09 20° WNW 23:13:17 20° WNW 23:17:00 10° N visible
08 Sep 4.6 20:52:33 25° ENE 20:52:33 25° ENE 20:55:30 10° NE visible
08 Sep 4.9 22:32:29 33° WNW 22:32:49 33° WNW 22:37:28 10° N visible
09 Sep 4.9 20:11:14 16° E 20:11:14 16° E 20:14:15 10° ENE visible
09 Sep 3.9 21:51:06 44° WSW 21:52:30 60° WNW 21:57:35 10° NNE visible
10 Sep 3.3 21:07:11 10° SSW 21:12:18 75° ESE 21:17:26 10° NNE visible
10 Sep 6.2 22:51:51 10° W 22:54:44 15° NW 22:57:38 10° NNW visible
